Regional Weather Roundup
Issued by NWS Albany, NY

Home | Current Version | Previous Version | Graphics & Text | Print | Product List | Glossary Off
Versions: 1 2 3 4 5 6 7 8 9 10 11 12 13 14 15 16 17 18 19 20 21 22 23 24 25 26 27 28 29 30 31 32 33 34 35 36 37 38 39 40 41 42 43 44 45 46 47 48 49 50

684
ASUS41 KALY 201810
RWRALY

NEW YORK STATE HOURLY WEATHER ROUNDUP
NATIONAL WEATHER SERVICE ALBANY NY
100 PM EST MON FEB 20 2017

NOTE: "FAIR" INDICATES FEW OR NO CLOUDS BELOW 12,000 FEET WITH NO
SIGNIFICANT WEATHER AND/OR NO OBSTRUCTIONS TO VISIBILITY.

NYZ032-033-038>043-046>054-057>066-NYZ062>081-082-084-201900-
EAST


CITY           SKY/WX    TMP DP  RH WIND       PRES   REMARKS
ALBANY         MOSUNNY   41  20  43 NE12      30.24S
GLENS FALLS    SUNNY     38  16  40 NE15      30.26R WCI  29
POUGHKEEPSIE   SUNNY     47  22  37 N13       30.18F
NEWBURGH       SUNNY     50  23  34 VRB6      30.19F
MONTGOMERY     SUNNY     51  16  24 NW13      30.17S
WHITE PLAINS   MOSUNNY   51  20  29 NW16      30.16S
ISLIP          MOSUNNY   50  24  36 NW16G23   30.16F
NEW YORK CITY  MOSUNNY   53  25  33 NW12      30.17F
CENTRAL PARK   SUNNY     52  22  30 W8        30.20F
$$

NYZ005>009-017-018-044>046-055-056-201900-
CENTRAL


CITY           SKY/WX    TMP DP  RH WIND       PRES   REMARKS
FULTON         SUNNY     34  18  52 NW10      30.35S WCI  26
SYRACUSE       SUNNY     36  16  44 NW12      30.33S WCI  28
ROME           SUNNY     38  13  35 NW3       30.31S
ELMIRA         SUNNY     44  24  45 NE6       30.29F
BINGHAMTON     SUNNY     37  15  40 NW12G17   30.24S WCI  29
MONTICELLO     SUNNY     43  16  33 NW17G24   30.21R
$$

NYZ026>034-041>043-087-201900-
NORTH


CITY           SKY/WX    TMP DP  RH WIND       PRES   REMARKS
WATERTOWN      SUNNY     34  14  43 N10       30.36R WCI  26
FORT DRUM      NOT AVBL
OGDENSBURG     FAIR      35  11  37 NE8       30.37S WCI  29
MASSENA        SUNNY     31  12  45 NW8       30.38S WCI  23
SARANAC LAKE   SUNNY     31   5  33 VRB7G16   30.23R WCI  24
PLATTSBURGH    SUNNY     34  13  41 N9        30.32R WCI  27
$$

NYZ001>004-010>016-019>021-085-201900-
WEST


CITY           SKY/WX    TMP DP  RH WIND       PRES   REMARKS
NIAGARA FALLS  SUNNY     44  24  45 NE10      30.31F
BUFFALO        MOSUNNY   43  25  49 NE9       30.31F
DUNKIRK        SUNNY     41  31  67 N10       30.32F
JAMESTOWN      SUNNY     45  28  53 NW5       30.26F
WELLSVILLE     SUNNY     42  26  53 VRB3      30.26F
ROCHESTER      SUNNY     39  22  50 N9        30.35F WCI  33
PENN YAN       SUNNY     40  20  44 NW6       30.31F
$$

             KEY
       WCI = WIND CHILL INDEX
       VSB = VISIBILITY
       HX  = HEAT INDEX
$$




USA.gov is the U.S. government's official web portal to all federal, state and local government web resources and services.